This is the latest recevied weather packets stored in our database for station/object JO1YDG-13. If no packets are shown the sender has not sent any weather packets the latest 10 day(s).
| Time | Temp. | Humidity | Pressure | Rain* | Wind** | Luminosity | Snow |
|---|---|---|---|---|---|---|---|
| 1777583169 | 11.67° C | 98% | 982.4 hPa | 6.1 mm | - | - | - |
| 1777581969 | 11.67° C | 98% | 982.4 hPa | 3.81 mm | - | - | - |
| 1777581669 | 11.67° C | 98% | 982.4 hPa | 3.3 mm | - | - | - |
| 1777581068 | 11.67° C | 98% | 982.6 hPa | 2.54 mm | - | - | - |
| 1777580768 | 11.67° C | 98% | 982.6 hPa | 2.29 mm | - | - | - |
| 1777580468 | 11.67° C | 98% | 982.6 hPa | 1.78 mm | - | - | - |
| 1777580168 | 11.67° C | 98% | 982.6 hPa | 1.52 mm | - | - | - |
| 1777579868 | 11.67° C | 98% | 982.4 hPa | 1.27 mm | - | - | - |
| 1777579567 | 11.67° C | 98% | 982.4 hPa | 1.27 mm | - | - | - |
| 1777579269 | 11.67° C | 98% | 982.8 hPa | 1.27 mm | - | - | - |
| 1777578668 | 11.67° C | 98% | 982.8 hPa | 1.27 mm | - | - | - |
| 1777578368 | 11.67° C | 98% | 983.1 hPa | 1.52 mm | - | - | - |
| 1777578068 | 11.67° C | 98% | 983.1 hPa | 2.03 mm | - | - | - |
| 1777577768 | 11.67° C | 98% | 983.7 hPa | 2.29 mm | - | - | - |
| 1777577467 | 11.67° C | 98% | 983.7 hPa | 2.29 mm | - | - | - |
| 1777577167 | 11.67° C | 98% | 984.2 hPa | 2.54 mm | - | - | - |
| 1777576866 | 11.67° C | 98% | 984.2 hPa | 3.05 mm | - | - | - |
| 1777576566 | 11.67° C | 98% | 984.2 hPa | 3.05 mm | - | - | - |
| 1777576268 | 11.67° C | 98% | 984.9 hPa | 3.56 mm | - | - | - |
| 1777575967 | 11.67° C | 98% | 984.9 hPa | 3.81 mm | - | - | - |
| 1777575366 | 11.67° C | 98% | 984.7 hPa | 4.06 mm | - | - | - |
| 1777575066 | 11.67° C | 98% | 984.7 hPa | 4.32 mm | - | - | - |
| 1777573866 | 11.67° C | 98% | 986.1 hPa | 4.32 mm | - | - | - |
| 1777573567 | 11.67° C | 98% | 986.1 hPa | 4.06 mm | - | - | - |
| 1777572366 | 11.67° C | 97% | 986.1 hPa | 3.05 mm | - | - | - |
* Rain latest hour (hover to see other rain measurements)
** Current wind speed in m/s (hover to see current wind gust speed)